CCM42PO LFKF-LFPO

Flight info

Callsign CCM42PO
Flight time 1h 30m
Altitude 34000
Route LONSU M622 PIGOS DCT BARSO DCT OKTET DCT GIPNO DCT BULOL DCT IDAVO DCT ARDOL
Aircraft A320/M-SDE3FGHIRWY/LB1

Departure

Time 2026-04-15 12:24
Airport Figari Sud-Corse Airport (LFKF)

Arrival

Time 2026-04-15 13:55
Airport Paris-Orly Airport (LFPO)
Time Latitude Longitude Altitude Speed Heading
2026-04-15 12:04 41.49940 9.09760 66 ft 0 kts 137°
2026-04-15 12:15 41.49940 9.09759 66 ft 0 kts 137°
2026-04-15 12:16 41.49951 9.09747 66 ft 2 kts 137°
2026-04-15 12:16 41.49962 9.09733 66 ft 2 kts 137°
2026-04-15 12:16 41.49971 9.09722 66 ft 0 kts 137°
2026-04-15 12:16 41.49979 9.09711 66 ft 2 kts 103°
2026-04-15 12:17 41.49977 9.09691 66 ft 1 kts 59°
2026-04-15 12:17 41.49973 9.09684 66 ft 1 kts 40°
2026-04-15 12:17 41.49970 9.09680 66 ft 0 kts 47°
2026-04-15 12:19 41.49974 9.09685 66 ft 1 kts 47°
2026-04-15 12:19 41.49990 9.09708 66 ft 4 kts 47°
2026-04-15 12:20 41.50018 9.09749 66 ft 7 kts 47°
2026-04-15 12:20 41.50056 9.09802 67 ft 8 kts 39°
2026-04-15 12:20 41.50113 9.09794 68 ft 9 kts 320°
2026-04-15 12:20 41.50167 9.09729 69 ft 11 kts 317°
2026-04-15 12:21 41.50239 9.09718 71 ft 12 kts 40°
2026-04-15 12:21 41.50301 9.09807 72 ft 13 kts 48°
2026-04-15 12:21 41.50370 9.09908 74 ft 15 kts 48°
2026-04-15 12:21 41.50447 9.10018 75 ft 16 kts 47°
2026-04-15 12:22 41.50532 9.10141 74 ft 19 kts 47°
2026-04-15 12:22 41.50628 9.10280 74 ft 21 kts 47°
2026-04-15 12:22 41.50728 9.10426 75 ft 19 kts 47°
2026-04-15 12:22 41.50816 9.10554 77 ft 17 kts 47°
2026-04-15 12:23 41.50897 9.10670 80 ft 15 kts 46°
2026-04-15 12:23 41.50932 9.10769 82 ft 10 kts 87°
2026-04-15 12:23 41.50961 9.10779 82 ft 6 kts 278°
2026-04-15 12:23 41.50924 9.10711 81 ft 22 kts 226°
2026-04-15 12:24 41.50641 9.10301 74 ft 94 kts 227°
2026-04-15 12:24 41.50069 9.09464 65 ft 151 kts 228°
2026-04-15 12:24 41.49332 9.08364 460 ft 162 kts 226°
2026-04-15 12:24 41.48419 9.07466 1027 ft 167 kts 203°
2026-04-15 12:25 41.47308 9.07031 1620 ft 169 kts 193°
2026-04-15 12:25 41.46178 9.06567 2101 ft 176 kts 198°
2026-04-15 12:25 41.44982 9.05983 2424 ft 191 kts 200°
2026-04-15 12:25 41.43685 9.05293 2740 ft 207 kts 201°
2026-04-15 12:26 41.42314 9.04502 3052 ft 225 kts 208°
2026-04-15 12:26 41.41161 9.02994 3281 ft 246 kts 246°
2026-04-15 12:26 41.40825 9.00743 3674 ft 257 kts 274°
2026-04-15 12:26 41.40884 8.98271 4120 ft 273 kts 275°
2026-04-15 12:27 41.40928 8.95734 4770 ft 280 kts 274°
2026-04-15 12:27 41.40947 8.93132 5545 ft 284 kts 274°
2026-04-15 12:27 41.40951 8.90522 6313 ft 287 kts 274°
2026-04-15 12:27 41.40951 8.87856 7072 ft 290 kts 273°
2026-04-15 12:28 41.41135 8.85225 7805 ft 290 kts 289°
2026-04-15 12:28 41.41981 8.82835 8570 ft 286 kts 309°
2026-04-15 12:28 41.43168 8.80729 9348 ft 288 kts 312°
2026-04-15 12:28 41.44406 8.78632 10061 ft 291 kts 312°
2026-04-15 12:29 41.45667 8.76488 10632 ft 301 kts 311°
2026-04-15 12:29 41.46992 8.74211 10997 ft 319 kts 311°
2026-04-15 12:29 41.48369 8.71820 11378 ft 334 kts 311°
2026-04-15 12:29 41.49777 8.69355 12010 ft 339 kts 310°
2026-04-15 12:30 41.51205 8.66841 12714 ft 341 kts 310°
2026-04-15 12:30 41.52632 8.64326 13385 ft 344 kts 311°
2026-04-15 12:30 41.54083 8.61770 14034 ft 347 kts 311°
2026-04-15 12:30 41.55533 8.59213 14669 ft 350 kts 311°
2026-04-15 12:31 41.57014 8.56601 15299 ft 353 kts 311°
2026-04-15 12:31 41.58486 8.53998 15930 ft 356 kts 311°
2026-04-15 12:31 41.59994 8.51360 16507 ft 358 kts 314°
2026-04-15 12:31 41.61844 8.49204 17011 ft 353 kts 334°
2026-04-15 12:32 41.64118 8.48115 17588 ft 348 kts 354°
2026-04-15 12:32 41.66520 8.47891 18154 ft 348 kts
2026-04-15 12:32 41.68935 8.47769 18661 ft 351 kts
2026-04-15 12:32 41.71374 8.47640 19180 ft 354 kts
2026-04-15 12:33 41.73835 8.47501 19675 ft 357 kts
2026-04-15 12:33 41.76324 8.47356 20191 ft 359 kts
2026-04-15 12:33 41.78815 8.47207 20692 ft 361 kts
2026-04-15 12:33 41.81356 8.47053 21155 ft 364 kts
2026-04-15 12:34 41.83889 8.46898 21626 ft 367 kts
2026-04-15 12:34 41.86417 8.46743 22078 ft 370 kts
2026-04-15 12:34 41.88990 8.46584 22527 ft 372 kts
2026-04-15 12:34 41.91612 8.46423 22986 ft 375 kts
2026-04-15 12:35 41.94215 8.46261 23419 ft 377 kts
2026-04-15 12:35 41.96851 8.46098 23846 ft 380 kts
2026-04-15 12:35 41.99475 8.45935 24290 ft 381 kts
2026-04-15 12:35 42.02119 8.45771 24734 ft 382 kts
2026-04-15 12:36 42.04802 8.45605 25142 ft 384 kts
2026-04-15 12:36 42.07274 8.45452 25501 ft 386 kts
2026-04-15 12:36 42.09938 8.45287 25913 ft 387 kts
2026-04-15 12:36 42.12653 8.45118 26320 ft 388 kts
2026-04-15 12:37 42.15339 8.44952 26683 ft 390 kts
2026-04-15 12:37 42.18051 8.44768 27036 ft 392 kts 358°
2026-04-15 12:37 42.20760 8.44194 27402 ft 396 kts 350°
2026-04-15 12:37 42.23389 8.43071 27759 ft 401 kts 342°
2026-04-15 12:38 42.25927 8.41425 28095 ft 406 kts 336°
2026-04-15 12:38 42.28463 8.39553 28472 ft 406 kts 336°
2026-04-15 12:38 42.30929 8.37696 28793 ft 407 kts 336°
2026-04-15 12:38 42.33409 8.35827 29137 ft 408 kts 336°
2026-04-15 12:39 42.35877 8.33968 29449 ft 409 kts 335°
2026-04-15 12:39 42.38375 8.32091 29739 ft 409 kts 336°
2026-04-15 12:39 42.40858 8.30225 30044 ft 410 kts 336°
2026-04-15 12:39 42.43351 8.28351 30281 ft 411 kts 336°
2026-04-15 12:40 42.45836 8.26482 30555 ft 411 kts 336°
2026-04-15 12:40 42.48302 8.24625 30864 ft 411 kts 336°
2026-04-15 12:40 42.50810 8.22737 31116 ft 411 kts 336°
2026-04-15 12:40 42.53333 8.20839 31319 ft 412 kts 336°
2026-04-15 12:41 42.55827 8.18957 31534 ft 412 kts 336°
2026-04-15 12:41 42.58306 8.17081 31847 ft 411 kts 337°
2026-04-15 12:41 42.60818 8.15181 32189 ft 408 kts 337°
2026-04-15 12:41 42.63270 8.13328 32473 ft 406 kts 337°
2026-04-15 12:42 42.65750 8.11452 32711 ft 405 kts 337°
2026-04-15 12:42 42.68206 8.09594 32942 ft 405 kts 338°
2026-04-15 12:42 42.70660 8.07734 33109 ft 406 kts 338°
2026-04-15 12:42 42.73128 8.05863 33235 ft 408 kts 338°
2026-04-15 12:43 42.75589 8.03996 33409 ft 408 kts 338°
2026-04-15 12:43 42.78041 8.02130 33632 ft 407 kts 338°
2026-04-15 12:43 42.80523 8.00246 33801 ft 407 kts 338°
2026-04-15 12:43 42.83023 7.98354 33946 ft 408 kts 338°
2026-04-15 12:44 42.85493 7.96484 34045 ft 408 kts 338°
2026-04-15 12:44 42.90432 7.92733 34044 ft 407 kts 338°
2026-04-15 12:45 42.95370 7.88979 34052 ft 407 kts 338°
2026-04-15 12:45 43.00293 7.85227 34060 ft 407 kts 338°
2026-04-15 12:46 43.05241 7.81449 34053 ft 407 kts 338°
2026-04-15 12:46 43.10166 7.77676 34061 ft 407 kts 337°
2026-04-15 12:47 43.15109 7.73852 34059 ft 408 kts 337°
2026-04-15 12:47 43.20049 7.70022 34066 ft 408 kts 337°
2026-04-15 12:48 43.24980 7.66201 34062 ft 408 kts 337°
2026-04-15 12:48 43.29924 7.62357 34060 ft 409 kts 337°
2026-04-15 12:49 43.34858 7.58520 34061 ft 409 kts 337°
2026-04-15 12:49 43.39787 7.54683 34054 ft 409 kts 336°
2026-04-15 12:50 43.44740 7.50819 34059 ft 410 kts 337°
2026-04-15 12:50 43.49711 7.46937 34060 ft 411 kts 336°
2026-04-15 12:51 43.54647 7.43071 34064 ft 410 kts 336°
2026-04-15 12:51 43.59606 7.39182 34061 ft 411 kts 336°
2026-04-15 12:52 43.64461 7.35087 34068 ft 413 kts 333°
2026-04-15 12:52 43.69318 7.30652 34072 ft 415 kts 332°
2026-04-15 12:53 43.74175 7.26195 34078 ft 415 kts 332°
2026-04-15 12:53 43.78980 7.21783 34081 ft 415 kts 332°
2026-04-15 12:54 43.83786 7.17367 34090 ft 415 kts 332°
2026-04-15 12:54 43.88561 7.12965 34106 ft 415 kts 332°
2026-04-15 12:55 43.93375 7.08520 34116 ft 416 kts 332°
2026-04-15 12:55 43.98184 7.04071 34122 ft 416 kts 331°
2026-04-15 12:56 44.02973 6.99634 34134 ft 416 kts 331°
2026-04-15 12:56 44.07810 6.95143 34146 ft 417 kts 332°
2026-04-15 12:57 44.12606 6.90683 34148 ft 417 kts 331°
2026-04-15 12:57 44.17430 6.86181 34153 ft 417 kts 331°
2026-04-15 12:58 44.22238 6.81681 34143 ft 417 kts 331°
2026-04-15 12:58 44.27021 6.77198 34141 ft 417 kts 330°
2026-04-15 12:59 44.34248 6.70410 34142 ft 417 kts 330°
2026-04-15 12:59 44.39057 6.65881 34145 ft 416 kts 330°
2026-04-15 13:00 44.43876 6.61329 34146 ft 417 kts 330°
2026-04-15 13:00 44.48651 6.56813 34144 ft 418 kts 330°
2026-04-15 13:01 44.53497 6.52226 34147 ft 418 kts 330°
2026-04-15 13:01 44.58301 6.47668 34150 ft 418 kts 329°
2026-04-15 13:02 44.63142 6.43063 34161 ft 419 kts 329°
2026-04-15 13:02 44.67961 6.38476 34173 ft 419 kts 329°
2026-04-15 13:03 44.72802 6.33855 34176 ft 419 kts 328°
2026-04-15 13:03 44.77603 6.29261 34172 ft 419 kts 328°
2026-04-15 13:04 44.82427 6.24632 34151 ft 420 kts 328°
2026-04-15 13:04 44.87243 6.20007 34153 ft 420 kts 328°
2026-04-15 13:05 44.92077 6.15357 34158 ft 420 kts 328°
2026-04-15 13:05 44.96905 6.10704 34167 ft 421 kts 328°
2026-04-15 13:06 45.01701 6.06068 34175 ft 421 kts 328°
2026-04-15 13:06 45.06540 6.01379 34172 ft 422 kts 328°
2026-04-15 13:07 45.11408 5.96653 34167 ft 423 kts 328°
2026-04-15 13:07 45.16230 5.91963 34163 ft 423 kts 328°
2026-04-15 13:08 45.21089 5.87230 34169 ft 424 kts 327°
2026-04-15 13:08 45.25930 5.82501 34170 ft 423 kts 327°
2026-04-15 13:09 45.30750 5.77783 34166 ft 423 kts 327°
2026-04-15 13:09 45.35597 5.73032 34161 ft 424 kts 327°
2026-04-15 13:10 45.40431 5.68280 34158 ft 424 kts 327°
2026-04-15 13:10 45.45263 5.63523 34156 ft 424 kts 327°
2026-04-15 13:11 45.50126 5.58720 34156 ft 425 kts 327°
2026-04-15 13:11 45.54997 5.53905 34157 ft 426 kts 327°
2026-04-15 13:12 45.59964 5.49357 34158 ft 425 kts 329°
2026-04-15 13:12 45.64996 5.44873 34165 ft 426 kts 329°
2026-04-15 13:13 45.70040 5.40365 34168 ft 427 kts 328°
2026-04-15 13:13 45.75035 5.35884 34170 ft 427 kts 329°
2026-04-15 13:14 45.80070 5.31360 34174 ft 427 kts 328°
2026-04-15 13:14 45.85055 5.26869 34173 ft 427 kts 328°
2026-04-15 13:15 45.90088 5.22329 34177 ft 427 kts 328°
2026-04-15 13:15 45.95115 5.17784 34175 ft 428 kts 328°
2026-04-15 13:16 46.00147 5.13221 34178 ft 429 kts 327°
2026-04-15 13:16 46.05279 5.08923 34183 ft 429 kts 332°
2026-04-15 13:17 46.10710 5.05273 34182 ft 429 kts 335°
2026-04-15 13:17 46.16141 5.01829 34181 ft 429 kts 335°
2026-04-15 13:18 46.21621 4.98346 34183 ft 430 kts 335°
2026-04-15 13:18 46.27084 4.94854 34182 ft 431 kts 335°
2026-04-15 13:19 46.32603 4.91312 34183 ft 432 kts 335°
2026-04-15 13:19 46.38065 4.87796 34184 ft 431 kts 335°
2026-04-15 13:20 46.43551 4.84260 34184 ft 431 kts 335°
2026-04-15 13:20 46.49006 4.80737 34181 ft 432 kts 334°
2026-04-15 13:21 46.54227 4.76387 34180 ft 431 kts 327°
2026-04-15 13:21 46.59297 4.71731 34181 ft 432 kts 327°
2026-04-15 13:22 46.64391 4.67074 34181 ft 433 kts 327°
2026-04-15 13:22 46.69512 4.62407 34179 ft 432 kts 327°
2026-04-15 13:23 46.74585 4.57784 34178 ft 433 kts 327°
2026-04-15 13:23 46.79676 4.53140 34179 ft 433 kts 327°
2026-04-15 13:24 46.84808 4.48446 34178 ft 434 kts 326°
2026-04-15 13:24 46.89896 4.43783 34180 ft 434 kts 326°
2026-04-15 13:25 46.95034 4.39064 34176 ft 436 kts 326°
2026-04-15 13:25 47.00163 4.34343 34177 ft 435 kts 325°
2026-04-15 13:26 47.05249 4.29651 34177 ft 435 kts 325°
2026-04-15 13:26 47.10375 4.24911 34174 ft 435 kts 325°
2026-04-15 13:27 47.15491 4.20168 34176 ft 436 kts 325°
2026-04-15 13:27 47.20606 4.15415 33977 ft 431 kts 325°
2026-04-15 13:28 47.23117 4.13079 33364 ft 430 kts 325°
2026-04-15 13:28 47.25641 4.10726 32610 ft 430 kts 325°
2026-04-15 13:28 47.28164 4.08370 31853 ft 431 kts 325°
2026-04-15 13:28 47.30674 4.06025 31019 ft 433 kts 325°
2026-04-15 13:29 47.33218 4.03648 30336 ft 431 kts 325°
2026-04-15 13:29 47.35715 4.01311 29774 ft 426 kts 325°
2026-04-15 13:29 47.38184 3.98999 29209 ft 422 kts 325°
2026-04-15 13:29 47.40648 3.96690 28619 ft 419 kts 325°
2026-04-15 13:30 47.43095 3.94393 28038 ft 416 kts 325°
2026-04-15 13:30 47.45510 3.92122 27452 ft 412 kts 325°
2026-04-15 13:30 47.47912 3.89861 26876 ft 409 kts 325°
2026-04-15 13:30 47.50301 3.87611 26302 ft 405 kts 325°
2026-04-15 13:31 47.52654 3.85390 25724 ft 402 kts 325°
2026-04-15 13:31 47.55014 3.83162 25158 ft 399 kts 325°
2026-04-15 13:31 47.57322 3.80979 24590 ft 396 kts 325°
2026-04-15 13:31 47.59608 3.78815 24019 ft 393 kts 325°
2026-04-15 13:32 47.61918 3.76626 23444 ft 391 kts 325°
2026-04-15 13:32 47.64188 3.74475 22895 ft 388 kts 325°
2026-04-15 13:32 47.66442 3.72337 22354 ft 385 kts 325°
2026-04-15 13:32 47.68675 3.70217 21817 ft 382 kts 325°
2026-04-15 13:33 47.70883 3.68115 21289 ft 379 kts 325°
2026-04-15 13:33 47.73111 3.65994 20759 ft 376 kts 325°
2026-04-15 13:33 47.75273 3.63932 20256 ft 373 kts 325°
2026-04-15 13:33 47.77438 3.61867 19743 ft 371 kts 325°
2026-04-15 13:34 47.79594 3.59809 19246 ft 368 kts 325°
2026-04-15 13:34 47.81732 3.57765 18747 ft 365 kts 325°
2026-04-15 13:34 47.83859 3.55730 18242 ft 362 kts 325°
2026-04-15 13:34 47.85952 3.53723 17743 ft 360 kts 325°
2026-04-15 13:35 47.88050 3.51711 17251 ft 358 kts 325°
2026-04-15 13:35 47.90151 3.49695 16760 ft 356 kts 325°
2026-04-15 13:35 47.92204 3.47723 16287 ft 354 kts 325°
2026-04-15 13:35 47.94250 3.45755 15815 ft 351 kts 325°
2026-04-15 13:36 47.96308 3.43773 15346 ft 349 kts 325°
2026-04-15 13:36 47.98327 3.41831 14875 ft 348 kts 325°
2026-04-15 13:36 48.00354 3.39875 14402 ft 345 kts 325°
2026-04-15 13:36 48.02344 3.37956 13946 ft 343 kts 326°
2026-04-15 13:37 48.04396 3.36169 13541 ft 339 kts 329°
2026-04-15 13:37 48.06432 3.34511 13359 ft 329 kts 329°
2026-04-15 13:37 48.08420 3.32903 13172 ft 318 kts 329°
2026-04-15 13:37 48.10333 3.31346 12992 ft 308 kts 328°
2026-04-15 13:38 48.12204 3.29811 12778 ft 300 kts 328°
2026-04-15 13:38 48.14041 3.28295 12439 ft 297 kts 328°
2026-04-15 13:38 48.15831 3.26810 12062 ft 296 kts 328°
2026-04-15 13:38 48.17630 3.25316 11686 ft 294 kts 328°
2026-04-15 13:39 48.19407 3.23838 11312 ft 293 kts 328°
2026-04-15 13:39 48.21175 3.22368 10930 ft 292 kts 328°
2026-04-15 13:39 48.22955 3.20885 10553 ft 290 kts 328°
2026-04-15 13:39 48.24699 3.19430 10192 ft 288 kts 328°
2026-04-15 13:40 48.26437 3.17978 9834 ft 286 kts 328°
2026-04-15 13:40 48.28175 3.16527 9475 ft 284 kts 328°
2026-04-15 13:40 48.29883 3.15100 9120 ft 282 kts 328°
2026-04-15 13:40 48.31572 3.13686 8768 ft 280 kts 329°
2026-04-15 13:41 48.33280 3.12256 8409 ft 278 kts 328°
2026-04-15 13:41 48.34942 3.10866 8190 ft 271 kts 328°
2026-04-15 13:41 48.36558 3.09513 7974 ft 264 kts 328°
2026-04-15 13:41 48.38165 3.08164 7642 ft 263 kts 328°
2026-04-15 13:42 48.39755 3.06827 7313 ft 261 kts 328°
2026-04-15 13:42 48.41318 3.05515 7164 ft 259 kts 328°
2026-04-15 13:42 48.42905 3.04179 7160 ft 260 kts 328°
2026-04-15 13:42 48.44478 3.02853 7158 ft 260 kts 328°
2026-04-15 13:43 48.46059 3.01520 7157 ft 261 kts 328°
2026-04-15 13:43 48.47644 3.00184 7158 ft 261 kts 328°
2026-04-15 13:43 48.49218 2.98857 7157 ft 261 kts 328°
2026-04-15 13:43 48.50797 2.97525 7159 ft 260 kts 328°
2026-04-15 13:44 48.52400 2.96172 7161 ft 260 kts 328°
2026-04-15 13:44 48.53957 2.94859 7139 ft 250 kts 328°
2026-04-15 13:44 48.55431 2.93613 6981 ft 242 kts 328°
2026-04-15 13:44 48.56894 2.92377 6777 ft 237 kts 328°
2026-04-15 13:45 48.58324 2.91167 6485 ft 236 kts 328°
2026-04-15 13:45 48.59735 2.89969 6185 ft 234 kts 328°
2026-04-15 13:45 48.61160 2.88759 5885 ft 233 kts 328°
2026-04-15 13:47 48.71213 2.81504 4013 ft 229 kts
2026-04-15 13:47 48.72801 2.81670 4010 ft 229 kts
2026-04-15 13:47 48.74393 2.81805 4001 ft 228 kts 356°
2026-04-15 13:48 48.75874 2.81239 3970 ft 214 kts 326°
2026-04-15 13:48 48.76958 2.79802 3994 ft 208 kts 302°
2026-04-15 13:48 48.77697 2.77920 4001 ft 207 kts 295°
2026-04-15 13:48 48.78363 2.75993 4000 ft 206 kts 291°
2026-04-15 13:49 48.78646 2.73927 3986 ft 202 kts 267°
2026-04-15 13:49 48.78476 2.71792 4003 ft 200 kts 257°
2026-04-15 13:49 48.78196 2.69830 4074 ft 183 kts 256°
2026-04-15 13:49 48.77893 2.67974 3974 ft 181 kts 254°
2026-04-15 13:50 48.77569 2.66131 3743 ft 180 kts 253°
2026-04-15 13:50 48.77235 2.64314 3512 ft 180 kts 252°
2026-04-15 13:50 48.76896 2.62494 3282 ft 180 kts 252°
2026-04-15 13:50 48.76553 2.60668 3049 ft 179 kts 252°
2026-04-15 13:51 48.76214 2.58862 2818 ft 178 kts 252°
2026-04-15 13:51 48.75879 2.57076 2586 ft 177 kts 252°
2026-04-15 13:51 48.75544 2.55283 2354 ft 177 kts 252°
2026-04-15 13:51 48.75220 2.53544 2147 ft 165 kts 252°
2026-04-15 13:52 48.74923 2.51946 1921 ft 154 kts 252°
2026-04-15 13:52 48.74632 2.50389 1717 ft 154 kts 251°
2026-04-15 13:52 48.74345 2.48842 1510 ft 149 kts 251°
2026-04-15 13:52 48.74077 2.47398 1307 ft 138 kts 253°
2026-04-15 13:53 48.73818 2.45999 1126 ft 132 kts 251°
2026-04-15 13:53 48.73576 2.44690 959 ft 128 kts 250°
2026-04-15 13:53 48.73335 2.43398 806 ft 127 kts 252°
2026-04-15 13:53 48.73102 2.42114 631 ft 128 kts 252°
2026-04-15 13:54 48.72868 2.40816 442 ft 128 kts 250°
2026-04-15 13:54 48.72619 2.39515 317 ft 128 kts 252°
2026-04-15 13:54 48.72377 2.38232 288 ft 117 kts 254°
2026-04-15 13:54 48.72206 2.37300 288 ft 68 kts 254°
2026-04-15 13:55 48.72178 2.36832 285 ft 26 kts 275°
2026-04-15 13:55 48.72189 2.36613 282 ft 15 kts 275°
2026-04-15 13:55 48.72218 2.36470 282 ft 10 kts 299°
2026-04-15 13:55 48.72257 2.36374 282 ft 11 kts 303°
2026-04-15 13:56 48.72309 2.36300 282 ft 7 kts 331°
2026-04-15 13:56 48.72340 2.36282 282 ft 0 kts 345°
2026-04-15 13:57 48.72351 2.36278 282 ft 3 kts 345°
2026-04-15 13:58 48.72385 2.36264 282 ft 6 kts 345°
2026-04-15 13:58 48.72442 2.36240 282 ft 10 kts 344°
2026-04-15 13:58 48.72492 2.36164 282 ft 12 kts 267°
2026-04-15 13:58 48.72472 2.36024 282 ft 15 kts 263°
2026-04-15 13:59 48.72477 2.35853 282 ft 17 kts 274°
2026-04-15 13:59 48.72518 2.35702 279 ft 18 kts 340°
2026-04-15 13:59 48.72639 2.35649 279 ft 18 kts 345°
2026-04-15 13:59 48.72754 2.35627 279 ft 14 kts 28°
2026-04-15 14:00 48.72788 2.35734 282 ft 11 kts 75°
2026-04-15 14:00 48.72829 2.35822 282 ft 7 kts 47°
2026-04-15 14:00 48.72837 2.35835 282 ft 0 kts 47°
2026-04-15 14:00 48.72837 2.35836 282 ft 0 kts 47°